Regional Weather Roundup
Issued by NWS

Home | Current Version | Previous Version | Graphics & Text | Print | Product List | Glossary On
Versions: 1 2 3 4 5 6 7 8 9 10 11 12 13 14 15 16 17 18 19 20 21 22 23 24 25 26 27 28 29 30 31 32 33 34 35 36 37 38 39 40 41 42 43 44 45 46 47 48 49 50
000
ASUS44 KMEG 011100
RWRTN
TENNESSEE HOURLY STATE WEATHER ROUNDUP
NATIONAL WEATHER SERVICE MEMPHIS TN
600 AM CDT WED APR 01 2015

TNZ002-004-019-021-049-052-054-088>092-011200-
WEST TENNESSEE

CITY           SKY/WX    TMP DP  RH WIND       PRES   REMARKS
MEMPHIS INTL   MOCLDY    60  57  89 CALM      30.00R
NWS MEMPHIS      N/A    N/A N/A N/A MISG        N/A
JACKSON        CLEAR     50  48  93 E5        30.03R
DYERSBURG      PTCLDY    54  34  47 E5        30.03F
UNION CITY     CLEAR     45  41  87 CALM      30.02S
PARIS          CLEAR     48  36  61 E6        30.05R
LEXINGTON      CLEAR     46  39  76 NE3       30.04R
SAVANNAH       CLOUDY    50  50 100 CALM      30.04S VSB 0
$$

TNZ008-025-027-028-033-062-065-066-011200-
NORTH MIDDLE TENNESSEE

CITY           SKY/WX    TMP DP  RH WIND       PRES   REMARKS
NASHVILLE      CLEAR     50  35  56 NE6       30.07R
CLARKSVILLE    CLEAR     44  35  70 E5        30.06R
COOKEVILLE     CLEAR     36  34  93 NE3         N/A
CROSSVILLE     CLEAR     45  31  58 NE5       30.06R
$$

TNZ061-075-076-078-094-096-097-011200-
SOUTH MIDDLE TENNESSEE

CITY           SKY/WX    TMP DP  RH WIND       PRES   REMARKS
FAYETTEVILLE   CLEAR     48  48 100 N5        30.05R
TULLAHOMA      CLEAR     52  36  54 CALM      30.06R
WINCHESTER     CLEAR     48  43  81 N3        30.05R
COLUMBIA       CLEAR     46  46 100 CALM      30.05R
SHELBYVILLE    CLEAR     50  39  66 CALM      30.06R
$$

TNZ017-018-042-046-047-011200-
NORTHEAST TENNESSEE

CITY           SKY/WX    TMP DP  RH WIND       PRES   REMARKS
TRI CITIES     CLEAR     42  36  79 CALM      30.06R
ELIZABETHTON   SUNNY     36  32  87 CALM      30.05R
$$

TNZ012-013-036-069-073-074-011200-
CENTRAL EAST TENNESSEE

CITY           SKY/WX    TMP DP  RH WIND       PRES   REMARKS
KNOXVILLE      PTCLDY    49  34  56 N5        30.03R
OAK RIDGE      CLEAR     49  34  56 CALM      30.05R
GATLINBURG     SUNNY     39  37  93 CALM      30.04R
$$

TNZ083-085-099-011200-
SOUTHEAST TENNESSEE

CITY           SKY/WX    TMP DP  RH WIND       PRES   REMARKS
CHATTANOOGA    MOCLDY    55  47  74 N5        30.02R
$$

SKY/WX REPORTED AS FAIR MEANS FEW OR NO CLOUDS BELOW
12 THOUSAND FEET.



USA.gov is the U.S. government's official web portal to all federal, state and local government web resources and services.